Time,TemperatureF,DewpointF,PressureIn,WindDirection,WindDirectionDegrees,WindSpeedMPH,WindSpeedGustMPH,Humidity,HourlyPrecipIn,Conditions,Clouds,dailyrainin,SolarRadiationWatts/m^2,SoftwareType,DateUTC
2013-04-05 00:00:00,44.0,23.0,-100.00,SSW,202,0.0,-999.0,42,-99.99,,,-99.99,0.000000,,2013-04-05 04:00:00,
2013-04-05 00:42:00,44.0,23.0,-100.00,SSW,202,0.0,-999.0,42,-99.99,,,-99.99,0.000000,,2013-04-05 04:42:00,
2013-04-05 00:52:00,44.0,23.0,-100.00,SSW,202,0.0,-999.0,42,-99.99,,,-99.99,0.000000,,2013-04-05 04:52:00,
2013-04-05 01:00:00,43.0,23.0,-100.00,WSW,247,0.0,-999.0,45,-99.99,,,-99.99,0.000000,,2013-04-05 05:00:00,
2013-04-05 01:42:00,43.0,23.0,-100.00,WSW,247,0.0,-999.0,45,-99.99,,,-99.99,0.000000,,2013-04-05 05:42:00,
2013-04-05 01:52:00,43.0,23.0,-100.00,WSW,247,0.0,-999.0,45,-99.99,,,-99.99,0.000000,,2013-04-05 05:52:00,
2013-04-05 03:00:00,39.0,30.0,-100.00,NNW,337,0.0,-999.0,70,-99.99,,,-99.99,0.000000,,2013-04-05 07:00:00,
2013-04-05 03:42:00,39.0,30.0,-100.00,NNW,337,0.0,-999.0,70,-99.99,,,-99.99,0.000000,,2013-04-05 07:42:00,
2013-04-05 03:53:00,39.0,30.0,-100.00,NNW,337,0.0,-999.0,70,-99.99,,,-99.99,0.000000,,2013-04-05 07:53:00,
2013-04-05 04:00:00,35.0,30.0,-100.00,NW,315,0.0,-999.0,79,-99.99,,,-99.99,0.000000,,2013-04-05 08:00:00,
2013-04-05 04:43:00,35.0,30.0,-100.00,NW,315,0.0,-999.0,79,-99.99,,,-99.99,0.000000,,2013-04-05 08:43:00,
2013-04-05 04:52:00,35.0,30.0,-100.00,NW,315,0.0,-999.0,79,-99.99,,,-99.99,0.000000,,2013-04-05 08:52:00,
2013-04-05 05:00:00,32.0,29.0,-100.00,NW,315,0.0,-999.0,88,-99.99,,,-99.99,0.000000,,2013-04-05 09:00:00,
2013-04-05 05:43:00,32.0,29.0,-100.00,NW,315,0.0,-999.0,88,-99.99,,,-99.99,0.000000,,2013-04-05 09:43:00,
2013-04-05 05:53:00,32.0,29.0,-100.00,NW,315,0.0,-999.0,88,-99.99,,,-99.99,0.000000,,2013-04-05 09:53:00,
2013-04-05 06:00:00,35.0,31.0,-100.00,West,270,0.0,-999.0,86,-99.99,,,-99.99,0.000000,,2013-04-05 10:00:00,
2013-04-05 06:43:00,35.0,31.0,-100.00,West,270,0.0,-999.0,86,-99.99,,,-99.99,0.000000,,2013-04-05 10:43:00,
2013-04-05 06:53:00,35.0,31.0,-100.00,West,270,0.0,-999.0,86,-99.99,,,-99.99,0.000000,,2013-04-05 10:53:00,
2013-04-05 07:00:00,35.0,28.0,-100.00,ESE,112,0.0,-999.0,75,-99.99,,,-99.99,0.000000,,2013-04-05 11:00:00,
2013-04-05 07:42:00,35.0,28.0,-100.00,ESE,112,0.0,-999.0,75,-99.99,,,-99.99,0.000000,,2013-04-05 11:42:00,
2013-04-05 07:52:00,35.0,28.0,-100.00,ESE,112,0.0,-999.0,75,-99.99,,,-99.99,0.000000,,2013-04-05 11:52:00,
2013-04-05 09:00:00,37.0,26.0,-100.00,ESE,112,0.0,-999.0,64,-99.99,,,-99.99,171.679993,,2013-04-05 13:00:00,
2013-04-05 09:42:00,37.0,26.0,-100.00,ESE,112,0.0,-999.0,64,-99.99,,,-99.99,171.679993,,2013-04-05 13:42:00,
2013-04-05 09:52:00,37.0,26.0,-100.00,ESE,112,0.0,-999.0,64,-99.99,,,-99.99,171.679993,,2013-04-05 13:52:00,
2013-04-05 10:00:00,40.0,25.0,-100.00,ENE,67,0.0,-999.0,54,-99.99,,,-99.99,370.040009,,2013-04-05 14:00:00,
2013-04-05 10:43:00,40.0,25.0,-100.00,ENE,67,0.0,-999.0,54,-99.99,,,-99.99,370.040009,,2013-04-05 14:43:00,
2013-04-05 10:54:00,40.0,25.0,-100.00,ENE,67,0.0,-999.0,54,-99.99,,,-99.99,370.040009,,2013-04-05 14:54:00,
2013-04-05 11:00:00,43.0,21.0,-100.00,ESE,112,0.0,-999.0,42,-99.99,,,-99.99,559.119995,,2013-04-05 15:00:00,
2013-04-05 11:43:00,43.0,21.0,-100.00,ESE,112,0.0,-999.0,42,-99.99,,,-99.99,559.119995,,2013-04-05 15:43:00,
2013-04-05 11:54:00,43.0,21.0,-100.00,ESE,112,0.0,-999.0,42,-99.99,,,-99.99,559.119995,,2013-04-05 15:54:00,
2013-04-05 13:00:00,47.0,19.0,-100.00,West,270,0.0,-999.0,33,-99.99,,,-99.99,809.679993,,2013-04-05 17:00:00,
2013-04-05 13:45:00,47.0,19.0,-100.00,West,270,0.0,-999.0,33,-99.99,,,-99.99,809.679993,,2013-04-05 17:45:00,
2013-04-05 13:53:00,47.0,19.0,-100.00,West,270,0.0,-999.0,33,-99.99,,,-99.99,809.679993,,2013-04-05 17:53:00,
2013-04-05 14:00:00,45.0,21.0,-100.00,WNW,292,0.0,-999.0,38,-99.99,,,-99.99,854.919983,,2013-04-05 18:00:00,
2013-04-05 14:43:00,45.0,21.0,-100.00,WNW,292,0.0,-999.0,38,-99.99,,,-99.99,854.919983,,2013-04-05 18:43:00,
2013-04-05 14:53:00,45.0,21.0,-100.00,WNW,292,0.0,-999.0,38,-99.99,,,-99.99,854.919983,,2013-04-05 18:53:00,
2013-04-05 15:00:00,44.0,22.0,-100.00,NW,315,0.0,-999.0,41,-99.99,,,-99.99,842.159973,,2013-04-05 19:00:00,
2013-04-05 15:43:00,44.0,22.0,-100.00,NW,315,0.0,-999.0,41,-99.99,,,-99.99,842.159973,,2013-04-05 19:43:00,
2013-04-05 15:53:00,44.0,22.0,-100.00,NW,315,0.0,-999.0,41,-99.99,,,-99.99,842.159973,,2013-04-05 19:53:00,
2013-04-05 17:00:00,42.0,23.0,-100.00,NW,315,0.0,-999.0,47,-99.99,,,-99.99,607.840027,,2013-04-05 21:00:00,
2013-04-05 17:44:00,42.0,23.0,-100.00,NW,315,0.0,-999.0,47,-99.99,,,-99.99,607.840027,,2013-04-05 21:44:00,
2013-04-05 17:55:00,42.0,23.0,-100.00,NW,315,0.0,-999.0,47,-99.99,,,-99.99,607.840027,,2013-04-05 21:55:00,
2013-04-05 19:00:00,38.0,25.0,-100.00,NW,315,0.0,-999.0,57,-99.99,,,-99.99,220.399994,,2013-04-05 23:00:00,
2013-04-05 19:43:00,38.0,25.0,-100.00,NW,315,0.0,-999.0,57,-99.99,,,-99.99,220.399994,,2013-04-05 23:43:00,
2013-04-05 19:53:00,38.0,25.0,-100.00,NW,315,0.0,-999.0,57,-99.99,,,-99.99,220.399994,,2013-04-05 23:53:00,
2013-04-05 21:00:00,32.0,25.0,-100.00,NW,315,0.0,-999.0,76,-99.99,,,-99.99,2.320000,,2013-04-06 01:00:00,
2013-04-05 21:43:00,32.0,25.0,-100.00,NW,315,0.0,-999.0,76,-99.99,,,-99.99,2.320000,,2013-04-06 01:43:00,
2013-04-05 21:53:00,32.0,25.0,-100.00,NW,315,0.0,-999.0,76,-99.99,,,-99.99,2.320000,,2013-04-06 01:53:00,
2013-04-05 23:00:00,31.0,27.0,-100.00,SE,135,0.0,-999.0,85,-99.99,,,-99.99,0.000000,,2013-04-06 03:00:00,
2013-04-05 23:43:00,31.0,27.0,-100.00,SE,135,0.0,-999.0,85,-99.99,,,-99.99,0.000000,,2013-04-06 03:43:00,
2013-04-05 23:54:00,31.0,27.0,-100.00,SE,135,0.0,-999.0,85,-99.99,,,-99.99,0.000000,,2013-04-06 03:54:00,